Time,TemperatureF,DewpointF,PressureIn,WindDirection,WindDirectionDegrees,WindSpeedMPH,WindSpeedGustMPH,Humidity,HourlyPrecipIn,Conditions,Clouds,dailyrainin,SoftwareType,DateUTC
2013-01-30 00:03:00,30.7,30.4,30.15,NE,45,0.0,0.0,99,0.00,,,0.00,WUHU21623XXSP,2013-01-30 08:03:00,
2013-01-30 00:08:00,30.9,30.6,30.15,NE,45,0.0,0.0,99,0.00,,,0.00,WUHU21623XXSP,2013-01-30 08:08:00,
2013-01-30 00:13:00,30.9,30.6,30.14,NE,45,0.0,0.0,99,0.00,,,0.00,WUHU21623XXSP,2013-01-30 08:13:00,
2013-01-30 00:18:00,30.9,30.6,30.14,NE,45,0.0,0.0,99,0.00,,,0.00,WUHU21623XXSP,2013-01-30 08:18:00,
2013-01-30 00:23:00,30.9,30.6,30.14,NE,45,0.0,0.0,99,0.00,,,0.00,WUHU21623XXSP,2013-01-30 08:23:00,
2013-01-30 00:28:00,30.9,30.6,30.14,NE,45,0.0,0.0,99,0.00,,,0.00,WUHU21623XXSP,2013-01-30 08:28:00,
2013-01-30 00:33:00,31.1,30.8,30.14,NE,45,0.0,0.0,99,0.00,,,0.00,WUHU21623XXSP,2013-01-30 08:33:00,
2013-01-30 00:38:00,31.1,30.8,30.15,NE,45,0.0,0.0,99,0.00,,,0.00,WUHU21623XXSP,2013-01-30 08:38:00,
2013-01-30 00:43:00,31.1,30.8,30.15,NE,45,0.0,0.0,99,0.00,,,0.00,WUHU21623XXSP,2013-01-30 08:43:00,
2013-01-30 00:48:00,31.3,31.0,30.15,NE,45,0.0,0.0,99,0.00,,,0.00,WUHU21623XXSP,2013-01-30 08:48:00,
2013-01-30 00:54:00,31.3,31.0,30.15,NE,45,0.0,0.0,99,0.00,,,0.00,WUHU21623XXSP,2013-01-30 08:54:00,
2013-01-30 00:59:00,31.3,31.0,30.14,NE,45,0.0,0.0,99,0.00,,,0.00,WUHU21623XXSP,2013-01-30 08:59:00,
2013-01-30 01:04:00,31.3,31.0,30.15,NE,45,0.0,0.0,99,0.00,,,0.00,WUHU21623XXSP,2013-01-30 09:04:00,
2013-01-30 01:09:00,31.3,31.0,30.15,NE,45,0.0,0.0,99,0.00,,,0.00,WUHU21623XXSP,2013-01-30 09:09:00,
2013-01-30 01:14:00,31.3,31.0,30.14,NE,45,0.0,0.0,99,0.00,,,0.00,WUHU21623XXSP,2013-01-30 09:14:00,
2013-01-30 01:19:00,31.5,31.2,30.15,NE,45,0.0,0.0,99,0.00,,,0.00,WUHU21623XXSP,2013-01-30 09:19:00,
2013-01-30 01:24:00,31.6,31.3,30.15,NE,45,0.0,0.0,99,0.00,,,0.00,WUHU21623XXSP,2013-01-30 09:24:00,
2013-01-30 01:29:00,31.6,31.3,30.15,NE,45,0.0,0.0,99,0.00,,,0.00,WUHU21623XXSP,2013-01-30 09:29:00,
2013-01-30 01:34:00,31.6,31.3,30.15,NE,45,0.0,0.0,99,0.00,,,0.00,WUHU21623XXSP,2013-01-30 09:34:00,
2013-01-30 01:39:00,31.6,31.3,30.15,NE,45,0.0,0.0,99,0.00,,,0.00,WUHU21623XXSP,2013-01-30 09:39:00,
2013-01-30 01:44:00,31.6,31.3,30.15,NE,45,0.0,0.0,99,0.00,,,0.00,WUHU21623XXSP,2013-01-30 09:44:00,
2013-01-30 01:49:00,31.6,31.3,30.15,NE,45,0.0,0.0,99,0.00,,,0.00,WUHU21623XXSP,2013-01-30 09:49:00,
2013-01-30 01:54:00,31.6,31.3,30.15,NE,45,0.0,0.0,99,0.00,,,0.00,WUHU21623XXSP,2013-01-30 09:54:00,
2013-01-30 01:59:00,31.6,31.3,30.15,NE,45,0.0,0.0,99,0.00,,,0.00,WUHU21623XXSP,2013-01-30 09:59:00,
2013-01-30 02:04:00,31.6,31.3,30.15,NE,45,0.0,0.0,99,0.00,,,0.00,WUHU21623XXSP,2013-01-30 10:04:00,
2013-01-30 02:09:00,31.6,31.3,30.15,NE,45,0.0,0.0,99,0.00,,,0.00,WUHU21623XXSP,2013-01-30 10:09:00,
2013-01-30 02:14:00,31.6,31.3,30.15,NE,45,0.0,0.0,99,0.00,,,0.00,WUHU21623XXSP,2013-01-30 10:14:00,
2013-01-30 02:19:00,31.6,31.3,30.14,NE,45,0.0,0.0,99,0.00,,,0.00,WUHU21623XXSP,2013-01-30 10:19:00,
2013-01-30 02:24:00,31.6,31.3,30.14,NE,45,0.0,0.0,99,0.00,,,0.00,WUHU21623XXSP,2013-01-30 10:24:00,
2013-01-30 02:29:00,31.5,31.2,30.14,NE,45,0.0,0.0,99,0.00,,,0.00,WUHU21623XXSP,2013-01-30 10:29:00,
2013-01-30 02:34:00,31.3,31.0,30.15,NE,45,0.0,0.0,99,0.00,,,0.00,WUHU21623XXSP,2013-01-30 10:34:00,
2013-01-30 02:39:00,31.3,31.0,30.14,NE,45,0.0,0.0,99,0.00,,,0.00,WUHU21623XXSP,2013-01-30 10:39:00,
2013-01-30 02:44:00,31.3,31.0,30.14,NE,45,0.0,0.0,99,0.00,,,0.00,WUHU21623XXSP,2013-01-30 10:44:00,
2013-01-30 02:49:00,31.3,31.0,30.14,NE,45,0.0,0.0,99,0.00,,,0.00,WUHU21623XXSP,2013-01-30 10:49:00,
2013-01-30 02:54:00,31.1,30.8,30.14,NE,45,0.0,0.0,99,0.00,,,0.00,WUHU21623XXSP,2013-01-30 10:54:00,
2013-01-30 02:59:00,30.9,30.6,30.14,NE,45,0.0,0.0,99,0.00,,,0.00,WUHU21623XXSP,2013-01-30 10:59:00,
2013-01-30 03:04:00,30.9,30.6,30.14,NE,45,0.0,0.0,99,0.00,,,0.00,WUHU21623XXSP,2013-01-30 11:04:00,
2013-01-30 03:09:00,30.7,30.4,30.14,NE,45,0.0,0.0,99,0.00,,,0.00,WUHU21623XXSP,2013-01-30 11:09:00,
2013-01-30 03:14:00,30.7,30.4,30.14,NE,45,0.0,0.0,99,0.00,,,0.00,WUHU21623XXSP,2013-01-30 11:14:00,
2013-01-30 03:19:00,30.6,30.3,30.14,NE,45,0.0,0.0,99,0.00,,,0.00,WUHU21623XXSP,2013-01-30 11:19:00,
2013-01-30 03:24:00,30.4,30.1,30.14,NE,45,0.0,0.0,99,0.00,,,0.00,WUHU21623XXSP,2013-01-30 11:24:00,
2013-01-30 03:29:00,30.2,29.9,30.14,NE,45,0.0,0.0,99,0.00,,,0.00,WUHU21623XXSP,2013-01-30 11:29:00,
2013-01-30 03:34:00,30.0,29.7,30.14,NE,45,0.0,0.0,99,0.00,,,0.00,WUHU21623XXSP,2013-01-30 11:34:00,
2013-01-30 03:39:00,30.0,29.7,30.14,NE,45,0.0,0.0,99,0.00,,,0.00,WUHU21623XXSP,2013-01-30 11:39:00,
2013-01-30 03:44:00,30.0,29.7,30.14,NE,45,0.0,0.0,99,0.00,,,0.00,WUHU21623XXSP,2013-01-30 11:44:00,
2013-01-30 03:49:00,29.8,29.5,30.14,NE,45,0.0,0.0,99,0.00,,,0.00,WUHU21623XXSP,2013-01-30 11:49:00,
2013-01-30 03:54:00,29.8,29.5,30.14,NE,45,0.0,0.0,99,0.00,,,0.00,WUHU21623XXSP,2013-01-30 11:54:00,
2013-01-30 03:59:00,29.7,29.4,30.14,NE,45,0.0,0.0,99,0.00,,,0.00,WUHU21623XXSP,2013-01-30 11:59:00,
2013-01-30 04:04:00,29.5,29.2,30.14,NE,45,0.0,0.0,99,0.00,,,0.00,WUHU21623XXSP,2013-01-30 12:04:00,
2013-01-30 04:09:00,29.5,29.2,30.14,NE,45,0.0,0.0,99,0.00,,,0.00,WUHU21623XXSP,2013-01-30 12:09:00,
2013-01-30 04:14:00,29.5,29.2,30.14,NE,45,0.0,0.0,99,0.00,,,0.00,WUHU21623XXSP,2013-01-30 12:14:00,
2013-01-30 04:19:00,29.3,29.0,30.14,NE,45,0.0,0.0,99,0.00,,,0.00,WUHU21623XXSP,2013-01-30 12:19:00,
2013-01-30 04:24:00,29.1,28.8,30.13,NE,45,0.0,0.0,99,0.00,,,0.00,WUHU21623XXSP,2013-01-30 12:24:00,
2013-01-30 04:29:00,29.1,28.8,30.14,NE,45,0.0,0.0,99,0.00,,,0.00,WUHU21623XXSP,2013-01-30 12:29:00,
2013-01-30 04:34:00,29.1,28.8,30.14,NE,45,0.0,0.0,99,0.00,,,0.00,WUHU21623XXSP,2013-01-30 12:34:00,
2013-01-30 04:39:00,29.1,28.8,30.14,NE,45,0.0,0.0,99,0.00,,,0.00,WUHU21623XXSP,2013-01-30 12:39:00,
2013-01-30 04:44:00,29.1,28.8,30.14,NE,45,0.0,0.0,99,0.00,,,0.00,WUHU21623XXSP,2013-01-30 12:44:00,
2013-01-30 05:36:00,27.7,27.7,30.15,NE,45,0.0,0.0,100,0.00,,,0.00,WUHU21623XXSP,2013-01-30 13:36:00,
2013-01-30 05:41:00,27.7,27.4,30.15,NE,45,0.0,0.0,99,0.00,,,0.00,WUHU21623XXSP,2013-01-30 13:41:00,
2013-01-30 05:46:00,27.5,27.2,30.14,NE,45,0.0,0.0,99,0.00,,,0.00,WUHU21623XXSP,2013-01-30 13:46:00,
2013-01-30 05:51:00,27.3,27.0,30.15,NE,45,0.0,0.0,99,0.00,,,0.00,WUHU21623XXSP,2013-01-30 13:51:00,
2013-01-30 05:56:00,27.1,26.8,30.14,NE,45,0.0,0.0,99,0.00,,,0.00,WUHU21623XXSP,2013-01-30 13:56:00,
2013-01-30 06:01:00,27.1,26.8,30.14,NE,45,0.0,0.0,99,0.00,,,0.00,WUHU21623XXSP,2013-01-30 14:01:00,
2013-01-30 06:06:00,27.1,26.8,30.14,NE,45,0.0,0.0,99,0.00,,,0.00,WUHU21623XXSP,2013-01-30 14:06:00,
2013-01-30 06:11:00,27.1,26.8,30.14,NE,45,0.0,0.0,99,0.00,,,0.00,WUHU21623XXSP,2013-01-30 14:11:00,
2013-01-30 06:16:00,27.3,27.0,30.14,NE,45,0.0,0.0,99,0.00,,,0.00,WUHU21623XXSP,2013-01-30 14:16:00,
2013-01-30 06:21:00,27.3,27.0,30.14,NE,45,0.0,0.0,99,0.00,,,0.00,WUHU21623XXSP,2013-01-30 14:21:00,
2013-01-30 06:26:00,27.3,27.0,30.15,NE,45,0.0,0.0,99,0.00,,,0.00,WUHU21623XXSP,2013-01-30 14:26:00,
2013-01-30 06:31:00,27.3,27.0,30.15,NE,45,0.0,0.0,99,0.00,,,0.00,WUHU21623XXSP,2013-01-30 14:31:00,
2013-01-30 06:36:00,27.3,27.0,30.15,NE,45,0.0,0.0,99,0.00,,,0.00,WUHU21623XXSP,2013-01-30 14:36:00,
2013-01-30 06:41:00,27.1,26.8,30.15,NE,45,0.0,0.0,99,0.00,,,0.00,WUHU21623XXSP,2013-01-30 14:41:00,
2013-01-30 06:46:00,27.1,26.8,30.15,NE,45,0.0,0.0,99,0.00,,,0.00,WUHU21623XXSP,2013-01-30 14:46:00,
2013-01-30 06:51:00,27.1,26.8,30.14,NE,45,0.0,0.0,99,0.00,,,0.00,WUHU21623XXSP,2013-01-30 14:51:00,
2013-01-30 06:56:00,27.1,26.8,30.14,NE,45,0.0,0.0,99,0.00,,,0.00,WUHU21623XXSP,2013-01-30 14:56:00,
2013-01-30 07:01:00,27.1,26.8,30.15,NE,45,0.0,0.0,99,0.00,,,0.00,WUHU21623XXSP,2013-01-30 15:01:00,
2013-01-30 07:06:00,27.0,26.7,30.15,NE,45,0.0,0.0,99,0.00,,,0.00,WUHU21623XXSP,2013-01-30 15:06:00,
2013-01-30 07:11:00,26.8,26.5,30.15,NE,45,0.0,0.0,99,0.00,,,0.00,WUHU21623XXSP,2013-01-30 15:11:00,
2013-01-30 07:16:00,26.8,26.5,30.15,NE,45,0.0,0.0,99,0.00,,,0.00,WUHU21623XXSP,2013-01-30 15:16:00,
2013-01-30 07:21:00,26.4,26.1,30.15,NE,45,0.0,0.0,99,0.00,,,0.00,WUHU21623XXSP,2013-01-30 15:21:00,
2013-01-30 07:26:00,26.4,26.1,30.16,NE,45,0.0,0.0,99,0.00,,,0.00,WUHU21623XXSP,2013-01-30 15:26:00,
2013-01-30 07:31:00,26.4,26.1,30.17,NE,45,0.0,0.0,99,0.00,,,0.00,WUHU21623XXSP,2013-01-30 15:31:00,
2013-01-30 07:36:00,26.4,26.1,30.17,NE,45,0.0,0.0,99,0.00,,,0.00,WUHU21623XXSP,2013-01-30 15:36:00,
2013-01-30 07:41:00,26.2,25.9,30.17,NE,45,0.0,0.0,99,0.00,,,0.00,WUHU21623XXSP,2013-01-30 15:41:00,
2013-01-30 07:46:00,26.2,25.9,30.17,NE,45,0.0,0.0,99,0.00,,,0.00,WUHU21623XXSP,2013-01-30 15:46:00,
2013-01-30 07:51:00,26.4,26.1,30.17,NE,45,0.0,0.0,99,0.00,,,0.00,WUHU21623XXSP,2013-01-30 15:51:00,
2013-01-30 07:56:00,26.6,26.3,30.17,NE,45,0.0,0.0,99,0.00,,,0.00,WUHU21623XXSP,2013-01-30 15:56:00,
2013-01-30 08:01:00,26.8,26.5,30.17,NE,45,0.0,0.0,99,0.00,,,0.00,WUHU21623XXSP,2013-01-30 16:01:00,
2013-01-30 08:06:00,26.8,26.5,30.17,NE,45,0.0,0.0,99,0.00,,,0.00,WUHU21623XXSP,2013-01-30 16:06:00,
2013-01-30 08:11:00,26.8,26.5,30.18,NE,45,0.0,0.0,99,0.00,,,0.00,WUHU21623XXSP,2013-01-30 16:11:00,
2013-01-30 08:16:00,26.8,26.5,30.18,NE,45,0.0,0.0,99,0.00,,,0.00,WUHU21623XXSP,2013-01-30 16:16:00,
2013-01-30 08:21:00,26.8,26.5,30.18,NE,45,0.0,0.0,99,0.00,,,0.00,WUHU21623XXSP,2013-01-30 16:21:00,
2013-01-30 08:26:00,27.0,26.7,30.18,NE,45,0.0,0.0,99,0.00,,,0.00,WUHU21623XXSP,2013-01-30 16:26:00,
2013-01-30 08:31:00,27.0,26.7,30.18,NE,45,0.0,0.0,99,0.00,,,0.00,WUHU21623XXSP,2013-01-30 16:31:00,
2013-01-30 08:36:00,27.0,26.7,30.18,NE,45,0.0,0.0,99,0.00,,,0.00,WUHU21623XXSP,2013-01-30 16:36:00,
2013-01-30 08:41:00,27.1,26.8,30.18,NE,45,0.0,0.0,99,0.00,,,0.00,WUHU21623XXSP,2013-01-30 16:41:00,
2013-01-30 08:46:00,27.3,27.0,30.18,NE,45,0.0,0.0,99,0.00,,,0.00,WUHU21623XXSP,2013-01-30 16:46:00,
2013-01-30 08:51:00,28.0,27.7,30.18,NE,45,0.0,0.0,99,0.00,,,0.00,WUHU21623XXSP,2013-01-30 16:51:00,
2013-01-30 08:56:00,28.6,28.3,30.18,NE,45,0.0,0.0,99,0.00,,,0.00,WUHU21623XXSP,2013-01-30 16:56:00,
2013-01-30 09:01:00,29.1,28.8,30.18,NE,45,0.0,0.0,99,0.00,,,0.00,WUHU21623XXSP,2013-01-30 17:01:00,
2013-01-30 09:06:00,30.0,29.7,30.19,NE,45,0.0,0.0,99,0.00,,,0.00,WUHU21623XXSP,2013-01-30 17:06:00,
2013-01-30 09:11:00,30.4,30.1,30.18,NE,45,0.0,0.0,99,0.00,,,0.00,WUHU21623XXSP,2013-01-30 17:11:00,
2013-01-30 09:16:00,30.4,30.1,30.19,NE,45,0.0,0.0,99,0.00,,,0.00,WUHU21623XXSP,2013-01-30 17:16:00,
2013-01-30 09:21:00,30.4,30.1,30.18,NE,45,0.0,0.0,99,0.00,,,0.00,WUHU21623XXSP,2013-01-30 17:21:00,
2013-01-30 09:23:00,30.6,30.3,30.18,NE,45,0.0,0.0,99,0.00,,,0.00,WUHU21623XXSP,2013-01-30 17:23:00,
2013-01-30 09:29:00,31.3,31.0,30.19,NE,45,0.0,0.0,99,0.00,,,0.00,WUHU21623XXSP,2013-01-30 17:29:00,
2013-01-30 09:36:00,31.8,31.5,30.19,NE,45,0.0,0.0,99,0.00,,,0.00,WUHU21623XXSP,2013-01-30 17:36:00,
2013-01-30 09:51:00,32.7,32.4,30.19,NE,45,0.0,0.0,99,0.00,,,0.00,WUHU21623XXSP,2013-01-30 17:51:00,
2013-01-30 09:56:00,33.8,33.5,30.20,NE,45,0.0,0.0,99,0.00,,,0.00,WUHU21623XXSP,2013-01-30 17:56:00,
2013-01-30 10:01:00,33.6,33.0,30.20,NE,45,0.0,0.0,98,0.00,,,0.00,WUHU21623XXSP,2013-01-30 18:01:00,
2013-01-30 10:06:00,34.0,33.4,30.20,NE,45,0.0,0.0,98,0.00,,,0.00,WUHU21623XXSP,2013-01-30 18:06:00,
2013-01-30 10:11:00,34.2,33.4,30.20,NE,45,0.0,0.0,97,0.00,,,0.00,WUHU21623XXSP,2013-01-30 18:11:00,
2013-01-30 10:16:00,34.5,33.7,30.20,NE,45,0.0,0.0,97,0.00,,,0.00,WUHU21623XXSP,2013-01-30 18:16:00,
2013-01-30 10:21:00,34.9,33.8,30.20,NE,45,0.0,0.0,96,0.00,,,0.00,WUHU21623XXSP,2013-01-30 18:21:00,
2013-01-30 10:26:00,34.9,33.8,30.20,NE,45,0.0,0.0,96,0.00,,,0.00,WUHU21623XXSP,2013-01-30 18:26:00,
2013-01-30 10:31:00,35.2,34.1,30.20,NE,45,0.0,0.0,96,0.00,,,0.00,WUHU21623XXSP,2013-01-30 18:31:00,
2013-01-30 10:36:00,35.4,34.0,30.20,NE,45,0.0,0.0,95,0.00,,,0.00,WUHU21623XXSP,2013-01-30 18:36:00,
2013-01-30 10:41:00,35.8,34.1,30.20,NE,45,0.0,0.0,94,0.00,,,0.00,WUHU21623XXSP,2013-01-30 18:41:00,
2013-01-30 10:46:00,35.8,34.1,30.20,NE,45,0.0,0.0,94,0.00,,,0.00,WUHU21623XXSP,2013-01-30 18:46:00,
2013-01-30 10:51:00,36.1,34.4,30.21,NE,45,0.0,0.0,94,0.00,,,0.00,WUHU21623XXSP,2013-01-30 18:51:00,
2013-01-30 10:56:00,36.5,35.1,30.20,NE,45,0.0,0.0,95,0.00,,,0.00,WUHU21623XXSP,2013-01-30 18:56:00,
2013-01-30 11:02:00,36.7,34.8,30.20,NE,45,0.0,0.0,93,0.00,,,0.00,WUHU21623XXSP,2013-01-30 19:02:00,
2013-01-30 11:07:00,36.5,34.3,30.20,NNE,22,0.0,0.0,92,0.00,,,0.00,WUHU21623XXSP,2013-01-30 19:07:00,
2013-01-30 11:12:00,36.7,34.8,30.20,NNE,22,0.0,0.0,93,0.00,,,0.00,WUHU21623XXSP,2013-01-30 19:12:00,
2013-01-30 11:17:00,37.0,35.1,30.21,NNE,22,0.0,0.0,93,0.00,,,0.00,WUHU21623XXSP,2013-01-30 19:17:00,
2013-01-30 11:22:00,37.0,35.1,30.20,NNE,22,0.0,0.0,93,0.00,,,0.00,WUHU21623XXSP,2013-01-30 19:22:00,
2013-01-30 11:27:00,37.0,35.1,30.20,NNE,22,0.0,0.0,93,0.00,,,0.00,WUHU21623XXSP,2013-01-30 19:27:00,
2013-01-30 11:32:00,37.0,35.1,30.20,NNE,22,0.0,0.0,93,0.00,,,0.00,WUHU21623XXSP,2013-01-30 19:32:00,
2013-01-30 11:37:00,37.0,35.1,30.20,NNE,22,0.0,0.0,93,0.00,,,0.00,WUHU21623XXSP,2013-01-30 19:37:00,
2013-01-30 11:49:00,37.9,35.4,30.20,NNE,22,0.0,0.0,91,0.00,,,0.00,WUHU21623XXSP,2013-01-30 19:49:00,
2013-01-30 11:54:00,37.9,35.4,30.20,NNE,22,0.0,0.0,91,0.00,,,0.00,WUHU21623XXSP,2013-01-30 19:54:00,
2013-01-30 11:59:00,37.9,35.4,30.20,NNE,22,0.0,0.0,91,0.00,,,0.00,WUHU21623XXSP,2013-01-30 19:59:00,
2013-01-30 12:04:00,38.1,35.6,30.20,NNE,22,0.0,0.0,91,0.00,,,0.00,WUHU21623XXSP,2013-01-30 20:04:00,
2013-01-30 12:09:00,38.1,35.6,30.20,NNE,22,0.0,0.0,91,0.00,,,0.00,WUHU21623XXSP,2013-01-30 20:09:00,
2013-01-30 12:14:00,38.1,35.6,30.20,NNE,22,0.0,0.0,91,0.00,,,0.00,WUHU21623XXSP,2013-01-30 20:14:00,
2013-01-30 12:25:00,38.3,35.8,30.20,NNE,22,0.0,0.0,91,0.02,,,0.00,WUHU21623XXSP,2013-01-30 20:25:00,
2013-01-30 12:30:00,39.0,36.5,30.20,NE,45,0.0,0.0,91,0.02,,,0.02,WUHU21623XXSP,2013-01-30 20:30:00,
2013-01-30 12:35:00,39.2,36.4,30.20,NNE,22,0.0,0.0,90,0.02,,,0.02,WUHU21623XXSP,2013-01-30 20:35:00,
2013-01-30 12:40:00,39.6,36.8,30.20,NNE,22,0.0,0.0,90,0.02,,,0.02,WUHU21623XXSP,2013-01-30 20:40:00,
2013-01-30 12:45:00,39.9,37.1,30.20,NNE,22,0.0,0.0,90,0.02,,,0.02,WUHU21623XXSP,2013-01-30 20:45:00,
2013-01-30 12:50:00,39.9,36.8,30.20,NE,45,0.0,0.0,89,0.02,,,0.02,WUHU21623XXSP,2013-01-30 20:50:00,
2013-01-30 12:55:00,40.1,37.0,30.20,NE,45,0.0,0.0,89,0.02,,,0.02,WUHU21623XXSP,2013-01-30 20:55:00,
2013-01-30 13:00:00,40.3,37.2,30.20,NE,45,0.0,0.0,89,0.04,,,0.04,WUHU21623XXSP,2013-01-30 21:00:00,
2013-01-30 13:06:00,40.5,37.4,30.20,NE,45,0.0,0.0,89,0.04,,,0.04,WUHU21623XXSP,2013-01-30 21:06:00,
2013-01-30 13:11:00,41.2,37.8,30.20,East,90,0.0,0.0,88,0.04,,,0.04,WUHU21623XXSP,2013-01-30 21:11:00,
2013-01-30 13:16:00,41.4,38.0,30.20,East,90,0.0,0.0,88,0.04,,,0.04,WUHU21623XXSP,2013-01-30 21:16:00,
2013-01-30 13:21:00,41.4,38.0,30.20,ENE,67,0.0,0.0,88,0.04,,,0.04,WUHU21623XXSP,2013-01-30 21:21:00,
2013-01-30 13:26:00,42.6,39.5,30.21,ENE,67,0.0,0.0,89,0.02,,,0.04,WUHU21623XXSP,2013-01-30 21:26:00,
2013-01-30 13:31:00,43.7,40.0,30.20,ENE,67,0.0,0.0,87,0.02,,,0.04,WUHU21623XXSP,2013-01-30 21:31:00,
2013-01-30 13:36:00,43.5,39.2,30.20,ENE,67,0.0,0.0,85,0.02,,,0.04,WUHU21623XXSP,2013-01-30 21:36:00,
2013-01-30 13:41:00,42.1,37.5,30.21,ENE,67,0.0,0.0,84,0.02,,,0.04,WUHU21623XXSP,2013-01-30 21:41:00,
2013-01-30 13:46:00,40.8,36.3,30.21,ENE,67,0.0,0.0,84,0.02,,,0.04,WUHU21623XXSP,2013-01-30 21:46:00,
2013-01-30 13:51:00,39.7,35.5,30.21,ENE,67,0.0,0.0,85,0.02,,,0.04,WUHU21623XXSP,2013-01-30 21:51:00,
2013-01-30 13:56:00,38.8,34.9,30.20,ENE,67,0.0,0.0,86,0.02,,,0.04,WUHU21623XXSP,2013-01-30 21:56:00,
2013-01-30 14:01:00,37.9,34.0,30.21,ENE,67,0.0,0.0,86,0.00,,,0.04,WUHU21623XXSP,2013-01-30 22:01:00,
2013-01-30 14:06:00,37.8,34.2,30.21,ENE,67,0.0,0.0,87,0.00,,,0.04,WUHU21623XXSP,2013-01-30 22:06:00,
2013-01-30 14:11:00,37.2,33.9,30.21,ENE,67,0.0,0.0,88,0.00,,,0.04,WUHU21623XXSP,2013-01-30 22:11:00,
2013-01-30 14:16:00,37.9,35.1,30.21,ENE,67,0.0,0.0,90,0.00,,,0.04,WUHU21623XXSP,2013-01-30 22:16:00,
2013-01-30 14:19:00,38.5,35.7,30.21,ENE,67,0.0,0.0,90,0.00,,,0.04,WUHU21623XXSP,2013-01-30 22:19:00,
2013-01-30 14:23:00,39.0,35.9,30.21,ENE,67,0.0,0.0,89,0.00,,,0.04,WUHU21623XXSP,2013-01-30 22:23:00,
2013-01-30 14:29:00,38.5,35.2,30.21,ENE,67,0.0,0.0,88,0.00,,,0.04,WUHU21623XXSP,2013-01-30 22:29:00,
2013-01-30 14:36:00,37.9,34.6,30.21,ENE,67,0.0,0.0,88,0.00,,,0.04,WUHU21623XXSP,2013-01-30 22:36:00,
2013-01-30 14:50:00,36.0,33.0,30.21,East,90,0.0,0.0,89,0.00,,,0.04,WUHU21623XXSP,2013-01-30 22:50:00,
2013-01-30 14:55:00,35.8,33.1,30.21,East,90,0.0,0.0,90,0.00,,,0.04,WUHU21623XXSP,2013-01-30 22:55:00,
2013-01-30 15:00:00,35.4,32.7,30.21,East,90,0.0,0.0,90,0.00,,,0.04,WUHU21623XXSP,2013-01-30 23:00:00,
2013-01-30 15:05:00,35.2,32.7,30.21,East,90,0.0,0.0,91,0.00,,,0.04,WUHU21623XXSP,2013-01-30 23:05:00,
2013-01-30 15:10:00,35.4,32.9,30.21,East,90,0.0,0.0,91,0.00,,,0.04,WUHU21623XXSP,2013-01-30 23:10:00,
2013-01-30 15:15:00,36.1,33.9,30.22,East,90,0.0,0.0,92,0.00,,,0.04,WUHU21623XXSP,2013-01-30 23:15:00,
2013-01-30 15:20:00,36.3,33.8,30.22,East,90,0.0,0.0,91,0.00,,,0.04,WUHU21623XXSP,2013-01-30 23:20:00,
2013-01-30 15:25:00,36.0,33.5,30.22,East,90,0.0,0.0,91,0.00,,,0.04,WUHU21623XXSP,2013-01-30 23:25:00,
2013-01-30 15:30:00,35.4,32.9,30.22,East,90,0.0,0.0,91,0.00,,,0.04,WUHU21623XXSP,2013-01-30 23:30:00,
2013-01-30 15:35:00,34.9,32.4,30.22,East,90,0.0,0.0,91,0.00,,,0.04,WUHU21623XXSP,2013-01-30 23:35:00,
2013-01-30 15:36:00,34.7,32.2,30.22,East,90,0.0,0.0,91,0.00,,,0.04,WUHU21623XXSP,2013-01-30 23:36:00,
2013-01-30 15:40:00,34.9,32.4,30.22,East,90,0.0,0.0,91,0.00,,,0.04,WUHU21623XXSP,2013-01-30 23:40:00,
2013-01-30 15:46:00,34.9,32.4,30.22,East,90,0.0,0.0,91,0.00,,,0.04,WUHU21623XXSP,2013-01-30 23:46:00,
2013-01-30 15:51:00,34.7,32.2,30.22,East,90,0.0,0.0,91,0.00,,,0.04,WUHU21623XXSP,2013-01-30 23:51:00,
2013-01-30 16:06:00,34.3,31.8,30.22,East,90,0.0,0.0,91,0.00,,,0.04,WUHU21623XXSP,2013-01-31 00:06:00,
2013-01-30 16:11:00,34.0,31.8,30.22,East,90,0.0,0.0,92,0.00,,,0.04,WUHU21623XXSP,2013-01-31 00:11:00,
2013-01-30 16:16:00,33.6,31.4,30.22,East,90,0.0,0.0,92,0.00,,,0.04,WUHU21623XXSP,2013-01-31 00:16:00,
2013-01-30 16:21:00,33.3,31.1,30.22,East,90,0.0,0.0,92,0.00,,,0.04,WUHU21623XXSP,2013-01-31 00:21:00,
2013-01-30 16:26:00,33.1,30.9,30.22,East,90,0.0,0.0,92,0.00,,,0.04,WUHU21623XXSP,2013-01-31 00:26:00,
2013-01-30 16:31:00,32.7,30.5,30.22,East,90,0.0,0.0,92,0.00,,,0.04,WUHU21623XXSP,2013-01-31 00:31:00,
2013-01-30 16:36:00,32.2,30.0,30.22,East,90,0.0,0.0,92,0.00,,,0.04,WUHU21623XXSP,2013-01-31 00:36:00,
2013-01-30 16:41:00,31.8,29.6,30.22,East,90,0.0,0.0,92,0.00,,,0.04,WUHU21623XXSP,2013-01-31 00:41:00,
2013-01-30 16:46:00,31.3,29.4,30.22,East,90,0.0,0.0,93,0.00,,,0.04,WUHU21623XXSP,2013-01-31 00:46:00,
2013-01-30 16:51:00,30.7,28.8,30.22,East,90,0.0,0.0,93,0.00,,,0.04,WUHU21623XXSP,2013-01-31 00:51:00,
2013-01-30 16:56:00,30.0,28.1,30.22,East,90,0.0,0.0,93,0.00,,,0.04,WUHU21623XXSP,2013-01-31 00:56:00,
2013-01-30 17:01:00,29.3,27.4,30.22,East,90,0.0,0.0,93,0.00,,,0.04,WUHU21623XXSP,2013-01-31 01:01:00,
2013-01-30 17:06:00,28.9,27.3,30.22,East,90,0.0,0.0,94,0.00,,,0.04,WUHU21623XXSP,2013-01-31 01:06:00,
2013-01-30 17:11:00,28.9,27.3,30.22,East,90,0.0,0.0,94,0.00,,,0.04,WUHU21623XXSP,2013-01-31 01:11:00,
2013-01-30 17:16:00,28.9,27.3,30.23,East,90,0.0,0.0,94,0.00,,,0.04,WUHU21623XXSP,2013-01-31 01:16:00,
2013-01-30 17:21:00,28.9,27.6,30.23,East,90,0.0,0.0,95,0.00,,,0.04,WUHU21623XXSP,2013-01-31 01:21:00,
2013-01-30 17:26:00,28.6,27.3,30.23,East,90,0.0,0.0,95,0.00,,,0.04,WUHU21623XXSP,2013-01-31 01:26:00,
2013-01-30 17:31:00,28.2,26.9,30.23,East,90,0.0,0.0,95,0.00,,,0.04,WUHU21623XXSP,2013-01-31 01:31:00,
2013-01-30 17:36:00,28.2,26.9,30.23,East,90,0.0,0.0,95,0.00,,,0.04,WUHU21623XXSP,2013-01-31 01:36:00,
2013-01-30 17:41:00,28.2,26.9,30.23,East,90,0.0,0.0,95,0.00,,,0.04,WUHU21623XXSP,2013-01-31 01:41:00,
2013-01-30 17:46:00,28.2,27.1,30.23,East,90,0.0,0.0,96,0.00,,,0.04,WUHU21623XXSP,2013-01-31 01:46:00,
2013-01-30 17:51:00,28.0,26.9,30.24,East,90,0.0,0.0,96,0.00,,,0.04,WUHU21623XXSP,2013-01-31 01:51:00,
2013-01-30 17:56:00,27.7,26.4,30.23,East,90,0.0,0.0,95,0.00,,,0.04,WUHU21623XXSP,2013-01-31 01:56:00,
2013-01-30 18:01:00,27.7,26.6,30.23,East,90,0.0,0.0,96,0.00,,,0.04,WUHU21623XXSP,2013-01-31 02:01:00,
2013-01-30 18:06:00,27.7,26.6,30.23,East,90,0.0,0.0,96,0.00,,,0.04,WUHU21623XXSP,2013-01-31 02:06:00,
2013-01-30 18:11:00,27.7,26.6,30.23,East,90,0.0,0.0,96,0.00,,,0.04,WUHU21623XXSP,2013-01-31 02:11:00,
2013-01-30 18:16:00,27.5,26.4,30.24,East,90,0.0,0.0,96,0.00,,,0.04,WUHU21623XXSP,2013-01-31 02:16:00,
2013-01-30 18:21:00,27.3,26.2,30.24,East,90,0.0,0.0,96,0.00,,,0.04,WUHU21623XXSP,2013-01-31 02:21:00,
2013-01-30 18:26:00,27.3,26.2,30.23,East,90,0.0,0.0,96,0.00,,,0.04,WUHU21623XXSP,2013-01-31 02:26:00,
2013-01-30 18:31:00,27.0,25.9,30.23,East,90,0.0,0.0,96,0.00,,,0.04,WUHU21623XXSP,2013-01-31 02:31:00,
2013-01-30 18:36:00,26.2,25.1,30.23,East,90,0.0,0.0,96,0.00,,,0.04,WUHU21623XXSP,2013-01-31 02:36:00,
2013-01-30 18:41:00,25.9,24.8,30.23,East,90,0.0,0.0,96,0.00,,,0.04,WUHU21623XXSP,2013-01-31 02:41:00,
2013-01-30 18:46:00,25.9,24.8,30.23,East,90,0.0,0.0,96,0.00,,,0.04,WUHU21623XXSP,2013-01-31 02:46:00,
2013-01-30 18:51:00,25.9,24.8,30.23,East,90,0.0,0.0,96,0.00,,,0.04,WUHU21623XXSP,2013-01-31 02:51:00,
2013-01-30 18:56:00,25.7,24.6,30.23,East,90,0.0,0.0,96,0.00,,,0.04,WUHU21623XXSP,2013-01-31 02:56:00,
2013-01-30 19:01:00,25.5,24.4,30.23,East,90,0.0,0.0,96,0.00,,,0.04,WUHU21623XXSP,2013-01-31 03:01:00,
2013-01-30 19:06:00,25.3,24.2,30.23,East,90,0.0,0.0,96,0.00,,,0.04,WUHU21623XXSP,2013-01-31 03:06:00,
2013-01-30 19:11:00,25.3,24.2,30.23,East,90,0.0,0.0,96,0.00,,,0.04,WUHU21623XXSP,2013-01-31 03:11:00,
2013-01-30 19:16:00,25.5,24.4,30.23,East,90,0.0,0.0,96,0.00,,,0.04,WUHU21623XXSP,2013-01-31 03:16:00,
2013-01-30 19:21:00,26.2,25.1,30.23,East,90,0.0,0.0,96,0.00,,,0.04,WUHU21623XXSP,2013-01-31 03:21:00,
2013-01-30 19:26:00,26.6,25.5,30.23,East,90,0.0,0.0,96,0.00,,,0.04,WUHU21623XXSP,2013-01-31 03:26:00,
2013-01-30 19:31:00,26.6,25.8,30.23,East,90,0.0,0.0,97,0.00,,,0.04,WUHU21623XXSP,2013-01-31 03:31:00,
2013-01-30 19:36:00,26.4,25.6,30.23,East,90,0.0,0.0,97,0.00,,,0.04,WUHU21623XXSP,2013-01-31 03:36:00,
2013-01-30 19:41:00,26.4,25.6,30.24,East,90,0.0,0.0,97,0.00,,,0.04,WUHU21623XXSP,2013-01-31 03:41:00,
2013-01-30 19:46:00,26.6,25.8,30.24,East,90,0.0,0.0,97,0.00,,,0.04,WUHU21623XXSP,2013-01-31 03:46:00,
2013-01-30 19:51:00,27.0,26.2,30.24,East,90,0.0,0.0,97,0.00,,,0.04,WUHU21623XXSP,2013-01-31 03:51:00,
2013-01-30 19:56:00,27.3,26.5,30.24,East,90,0.0,0.0,97,0.00,,,0.04,WUHU21623XXSP,2013-01-31 03:56:00,
2013-01-30 20:01:00,28.0,27.2,30.23,East,90,0.0,0.0,97,0.00,,,0.04,WUHU21623XXSP,2013-01-31 04:01:00,
2013-01-30 20:06:00,28.2,27.4,30.23,East,90,0.0,0.0,97,0.00,,,0.04,WUHU21623XXSP,2013-01-31 04:06:00,
2013-01-30 20:11:00,28.6,27.8,30.24,East,90,0.0,0.0,97,0.00,,,0.04,WUHU21623XXSP,2013-01-31 04:11:00,
2013-01-30 20:16:00,28.8,28.0,30.24,East,90,0.0,0.0,97,0.00,,,0.04,WUHU21623XXSP,2013-01-31 04:16:00,
2013-01-30 20:21:00,28.8,28.0,30.24,East,90,0.0,0.0,97,0.00,,,0.04,WUHU21623XXSP,2013-01-31 04:21:00,
2013-01-30 20:26:00,28.9,28.1,30.23,East,90,0.0,0.0,97,0.00,,,0.04,WUHU21623XXSP,2013-01-31 04:26:00,
2013-01-30 20:31:00,29.3,28.5,30.23,East,90,0.0,0.0,97,0.00,,,0.04,WUHU21623XXSP,2013-01-31 04:31:00,
2013-01-30 20:36:00,29.3,28.5,30.23,East,90,0.0,0.0,97,0.00,,,0.04,WUHU21623XXSP,2013-01-31 04:36:00,
2013-01-30 20:41:00,30.0,29.2,30.22,East,90,0.0,0.0,97,0.00,,,0.04,WUHU21623XXSP,2013-01-31 04:41:00,
2013-01-30 20:46:00,30.2,29.4,30.22,East,90,0.0,0.0,97,0.00,,,0.04,WUHU21623XXSP,2013-01-31 04:46:00,
2013-01-30 20:51:00,30.4,29.6,30.22,East,90,0.0,0.0,97,0.00,,,0.04,WUHU21623XXSP,2013-01-31 04:51:00,
2013-01-30 20:56:00,30.7,29.9,30.22,East,90,0.0,0.0,97,0.00,,,0.04,WUHU21623XXSP,2013-01-31 04:56:00,
2013-01-30 21:00:00,30.7,29.9,30.22,East,90,0.0,0.0,97,0.00,,,0.04,WUHU21623XXSP,2013-01-31 05:00:00,
2013-01-30 21:01:00,30.7,29.9,30.22,East,90,0.0,0.0,97,0.00,,,0.04,WUHU21623XXSP,2013-01-31 05:01:00,
2013-01-30 21:03:00,30.7,29.9,30.22,East,90,0.0,0.0,97,0.00,,,0.04,WUHU21623XXSP,2013-01-31 05:03:00,
2013-01-30 21:08:00,30.2,29.4,30.23,East,90,0.0,0.0,97,0.00,,,0.04,WUHU21623XXSP,2013-01-31 05:08:00,
2013-01-30 21:13:00,30.0,29.2,30.23,East,90,0.0,0.0,97,0.00,,,0.04,WUHU21623XXSP,2013-01-31 05:13:00,
2013-01-30 21:18:00,29.8,29.0,30.23,East,90,0.0,0.0,97,0.00,,,0.04,WUHU21623XXSP,2013-01-31 05:18:00,
2013-01-30 21:23:00,29.8,29.0,30.24,East,90,0.0,0.0,97,0.00,,,0.04,WUHU21623XXSP,2013-01-31 05:23:00,
2013-01-30 21:28:00,29.8,29.0,30.24,East,90,0.0,0.0,97,0.00,,,0.04,WUHU21623XXSP,2013-01-31 05:28:00,
2013-01-30 21:33:00,29.8,29.0,30.24,East,90,0.0,0.0,97,0.00,,,0.04,WUHU21623XXSP,2013-01-31 05:33:00,
2013-01-30 21:38:00,29.1,28.3,30.24,East,90,0.0,0.0,97,0.00,,,0.04,WUHU21623XXSP,2013-01-31 05:38:00,
2013-01-30 21:43:00,29.1,28.3,30.24,East,90,0.0,0.0,97,0.00,,,0.04,WUHU21623XXSP,2013-01-31 05:43:00,
2013-01-30 21:48:00,29.1,28.3,30.24,East,90,0.0,0.0,97,0.00,,,0.04,WUHU21623XXSP,2013-01-31 05:48:00,
2013-01-30 21:53:00,29.1,28.3,30.23,East,90,0.0,0.0,97,0.00,,,0.04,WUHU21623XXSP,2013-01-31 05:53:00,
2013-01-30 21:58:00,29.3,28.5,30.23,East,90,0.0,0.0,97,0.00,,,0.04,WUHU21623XXSP,2013-01-31 05:58:00,
2013-01-30 22:03:00,29.7,28.9,30.24,East,90,0.0,0.0,97,0.00,,,0.04,WUHU21623XXSP,2013-01-31 06:03:00,
2013-01-30 22:08:00,29.7,28.9,30.23,East,90,0.0,0.0,97,0.00,,,0.04,WUHU21623XXSP,2013-01-31 06:08:00,
2013-01-30 22:13:00,29.5,28.7,30.23,East,90,0.0,0.0,97,0.00,,,0.04,WUHU21623XXSP,2013-01-31 06:13:00,
2013-01-30 22:18:00,28.9,28.1,30.23,East,90,0.0,0.0,97,0.00,,,0.04,WUHU21623XXSP,2013-01-31 06:18:00,
2013-01-30 22:23:00,28.6,27.8,30.23,East,90,0.0,0.0,97,0.00,,,0.04,WUHU21623XXSP,2013-01-31 06:23:00,
2013-01-30 22:28:00,27.7,26.9,30.23,East,90,0.0,0.0,97,0.00,,,0.04,WUHU21623XXSP,2013-01-31 06:28:00,
2013-01-30 22:33:00,27.5,26.7,30.23,East,90,0.0,0.0,97,0.00,,,0.04,WUHU21623XXSP,2013-01-31 06:33:00,
2013-01-30 22:38:00,27.7,26.9,30.23,East,90,0.0,0.0,97,0.00,,,0.04,WUHU21623XXSP,2013-01-31 06:38:00,
2013-01-30 22:43:00,28.0,27.2,30.23,East,90,0.0,0.0,97,0.00,,,0.04,WUHU21623XXSP,2013-01-31 06:43:00,
2013-01-30 22:48:00,28.2,27.4,30.24,East,90,0.0,0.0,97,0.00,,,0.04,WUHU21623XXSP,2013-01-31 06:48:00,
2013-01-30 22:53:00,28.8,28.0,30.24,East,90,0.0,0.0,97,0.00,,,0.04,WUHU21623XXSP,2013-01-31 06:53:00,
2013-01-30 22:58:00,28.8,28.2,30.24,East,90,0.0,0.0,98,0.00,,,0.04,WUHU21623XXSP,2013-01-31 06:58:00,
2013-01-30 23:03:00,28.2,27.4,30.24,East,90,0.0,0.0,97,0.00,,,0.04,WUHU21623XXSP,2013-01-31 07:03:00,
2013-01-30 23:08:00,28.0,27.2,30.24,East,90,0.0,0.0,97,0.00,,,0.04,WUHU21623XXSP,2013-01-31 07:08:00,
2013-01-30 23:13:00,27.5,26.7,30.24,East,90,0.0,0.0,97,0.00,,,0.04,WUHU21623XXSP,2013-01-31 07:13:00,
2013-01-30 23:18:00,27.1,26.3,30.25,East,90,0.0,0.0,97,0.00,,,0.04,WUHU21623XXSP,2013-01-31 07:18:00,
2013-01-30 23:23:00,27.1,26.3,30.25,East,90,0.0,0.0,97,0.00,,,0.04,WUHU21623XXSP,2013-01-31 07:23:00,
2013-01-30 23:28:00,27.1,26.3,30.25,East,90,0.0,0.0,97,0.00,,,0.04,WUHU21623XXSP,2013-01-31 07:28:00,
2013-01-30 23:33:00,26.8,26.0,30.25,East,90,0.0,0.0,97,0.00,,,0.04,WUHU21623XXSP,2013-01-31 07:33:00,
2013-01-30 23:38:00,26.8,26.0,30.25,East,90,0.0,0.0,97,0.00,,,0.04,WUHU21623XXSP,2013-01-31 07:38:00,
2013-01-30 23:43:00,26.6,25.8,30.25,East,90,0.0,0.0,97,0.00,,,0.04,WUHU21623XXSP,2013-01-31 07:43:00,
2013-01-30 23:48:00,26.4,25.6,30.25,East,90,0.0,0.0,97,0.00,,,0.04,WUHU21623XXSP,2013-01-31 07:48:00,
2013-01-30 23:53:00,26.6,25.8,30.25,East,90,0.0,0.0,97,0.00,,,0.04,WUHU21623XXSP,2013-01-31 07:53:00,
2013-01-30 23:59:00,26.4,25.6,30.25,East,90,0.0,0.0,97,0.00,,,0.04,WUHU21623XXSP,2013-01-31 07:59:00,